DW8785 Weather Reports


time (UTC)temp
C
wind
direction
speed
KPH
gust
KPH
rain 1hr
cm
rain 24hr
cm
rain mn
cm
humidity
%
barometer
mb
20260902171502 22 301 0.0 0.0 0.00 0.00 0.00 68 1013.1
20260902170100 22 294 0.0 0.0 0.00 0.00 0.00 70 1013.2
20260902164559 23 295 0.0 0.0 0.00 0.00 0.00 69 1013.2
20260902163051 22 295 3.2 0.0 0.00 0.00 0.00 69 1013.3
20260902161557 22 295 3.2 0.0 0.00 0.00 0.00 68 1013.4
20260902160040 23 282 0.0 0.0 0.00 0.00 0.00 65 1013.6
20260902154541 22 284 3.2 0.0 0.00 0.00 0.00 66 1013.9
20260902153037 22 281 0.0 0.0 0.00 0.00 0.00 63 1013.5
20260902151528 22 86 6.4 0.0 0.00 0.00 0.00 64 1013.5
20260902150026 23 140 3.2 0.0 0.00 0.00 0.00 65 1013.3
20260902144519 23 323 0.0 0.0 0.00 0.00 0.00 64 1012.8
20260902143020 24 41 4.8 0.0 0.00 0.00 0.00 61 1012.8
20260902141521 24 65 6.4 0.0 0.00 0.00 0.00 59 1012.8
20260902140009 25 32 8.0 0.0 0.00 0.00 0.00 58 1013.1
20260902134503 25 28 1.6 0.0 0.00 0.00 0.00 57 1013.1
20260902133103 25 31 4.8 0.0 0.00 0.00 0.00 57 1013.2
20260902131554 25 62 0.0 0.0 0.00 0.00 0.00 57 1013.3
20260902130051 25 58 3.2 0.0 0.00 0.00 0.00 56 1013.5
20260902124546 25 64 1.6 0.0 0.00 0.00 0.00 58 1013.6
20260902123040 25 117 3.2 0.0 0.00 0.00 0.00 57 1014.1
20260902121538 24 298 1.6 0.0 0.00 0.00 0.00 57 1014.1
20260902120033 25 93 3.2 0.0 0.00 0.00 0.00 57 1013.9
20260902114529 25 357 1.6 0.0 0.00 0.00 0.00 56 1014.0
20260902113023 25 42 4.8 0.0 0.00 0.00 0.00 57 1014.2
20260902111518 24 82 3.2 0.0 0.00 0.00 0.00 58 1014.7
20260902110015 24 69 8.0 0.0 0.00 0.00 0.00 58 1014.7
20260902104510 24 83 6.4 0.0 0.00 0.00 0.00 59 1014.9
20260902103005 25 68 6.4 0.0 0.00 0.00 0.00 57 1015.0
20260902101503 25 71 4.8 0.0 0.00 0.00 0.00 58 1015.1
20260902100057 24 0 6.4 0.0 0.00 0.00 0.00 57 1015.0
20260902094552 24 59 8.0 0.0 0.00 0.00 0.00 59 1015.1
20260902093111 24 73 4.8 0.0 0.00 0.00 0.00 58 1015.3
20260902091551 23 119 3.2 0.0 0.00 0.00 0.00 57 1015.1
20260902090045 23 45 4.8 0.0 0.00 0.00 0.00 57 1015.0
20260902084547 23 52 1.6 0.0 0.00 0.00 0.00 59 1014.9
20260902083040 23 78 1.6 0.0 0.00 0.00 0.00 62 1014.8
20260902081526 23 40 0.0 0.0 0.00 0.00 0.00 63 1014.5
20260902080023 23 32 0.0 0.0 0.00 0.00 0.00 65 1014.5
20260902074517 22 291 0.0 0.0 0.00 0.00 0.00 69 1014.6
20260902073012 21 289 0.0 0.0 0.00 0.00 0.00 72 1014.5
20260902071508 21 291 3.2 0.0 0.00 0.00 0.00 73 1014.3
20260902070006 21 296 1.6 0.0 0.00 0.00 0.00 73 1014.2
20260902064619 21 295 1.6 0.0 0.00 0.00 0.00 72 1014.2
20260902063058 21 298 1.6 0.0 0.00 0.00 0.00 71 1014.2
20260902061553 21 302 0.0 0.0 0.00 0.00 0.00 71 1014.0
20260902060051 20 295 1.6 0.0 0.00 0.00 0.00 71 1014.1
20260902054543 20 299 0.0 0.0 0.00 0.00 0.00 71 1014.1
20260902053038 20 299 1.6 0.0 0.00 0.00 0.00 72 1014.0
20260902051534 20 304 3.2 0.0 0.00 0.00 0.00 71 1013.6
20260902050029 20 311 0.0 0.0 0.00 0.00 0.00 70 1013.5
20260902044525 20 337 0.0 0.0 0.00 0.00 0.00 69 1013.5
20260902043021 20 342 0.0 0.0 0.00 0.00 0.00 67 1013.6
20260902041517 20 340 0.0 0.0 0.00 0.00 0.00 65 1013.3
20260902040013 20 347 0.0 0.0 0.00 0.00 0.00 65 1013.2
20260902034508 20 356 0.0 0.0 0.00 0.00 0.00 65 1013.2
20260902033004 20 357 0.0 0.0 0.00 0.00 0.00 65 1013.2
20260902031600 20 339 0.0 0.0 0.00 0.00 0.00 66 1013.2
20260902030055 21 340 0.0 0.0 0.00 0.00 0.00 66 1013.1
20260902024558 21 340 1.6 0.0 0.00 0.00 0.00 65 1013.1
20260902023053 21 294 0.0 0.0 0.00 0.00 0.00 62 1013.0
20260902021550 21 294 0.0 0.0 0.00 0.00 0.00 61 1013.2
20260902020038 21 285 0.0 0.0 0.00 0.00 0.00 56 1013.2
20260902014540 20 284 0.0 0.0 0.00 0.00 0.00 56 1013.2
20260902013031 20 284 3.2 0.0 0.00 0.00 0.00 55 1013.3
20260902011528 21 274 6.4 0.0 0.00 0.00 0.00 55 1013.4
20260902010024 20 359 4.8 0.0 0.00 0.00 0.00 54 1013.4
20260902004523 20 284 9.7 0.0 0.00 0.00 0.00 54 1013.3
20260902003015 20 359 11.3 0.0 0.00 0.00 0.00 54 1013.5
20260902001511 20 284 12.9 0.0 0.00 0.00 0.00 54 1013.3
20260902000007 20 352 14.5 0.0 0.00 0.00 0.00 54 1013.5
20260901234503 20 359 14.5 0.0 0.00 0.00 0.00 57 1013.5
20260901233058 20 192 17.7 0.0 0.00 0.00 0.00 54 1013.6
20260901231654 19 359 16.1 0.0 0.00 0.00 0.00 62 1013.6
20260901230052 19 357 16.1 0.0 0.00 0.00 0.00 61 1013.6
20260901224546 19 198 16.1 0.0 0.00 0.00 0.00 61 1013.7
20260901223047 19 189 12.9 0.0 0.00 0.00 0.00 62 1013.6
20260901221538 19 356 12.9 0.0 0.00 0.00 0.00 63 1013.6
20260901220037 19 191 17.7 0.0 0.00 0.00 0.00 62 1013.7
20260901214534 20 193 14.5 0.0 0.00 0.00 0.00 61 1013.6
20260901213032 20 343 16.1 0.0 0.00 0.00 0.00 62 1013.6
20260901211521 19 193 11.3 0.0 0.00 0.00 0.00 64 1013.6
20260901210019 20 188 16.1 0.0 0.00 0.00 0.00 64 1013.4
20260901204516 20 195 16.1 0.0 0.00 0.00 0.00 66 1013.4
20260901203010 20 188 12.9 0.0 0.00 0.00 0.00 68 1013.5
20260901201506 20 359 14.5 0.0 0.00 0.00 0.00 70 1013.4
20260901200001 20 357 12.9 0.0 0.00 0.00 0.00 72 1013.5
20260901194600 21 199 9.7 0.0 0.00 0.00 0.00 74 1013.4
20260901193057 21 359 11.3 0.0 0.00 0.00 0.00 74 1013.3
20260901191549 21 357 11.3 0.0 0.00 0.00 0.00 75 1013.4
20260901190048 21 359 9.7 0.0 0.00 0.00 0.00 75 1013.1
20260901184547 21 192 11.3 0.0 0.00 0.00 0.00 74 1013.0
20260901183038 22 359 16.1 0.0 0.00 0.00 0.00 71 1012.9
20260901181535 22 359 11.3 0.0 0.00 0.00 0.00 68 1013.0
20260901180028 23 0 14.5 0.0 0.00 0.00 0.00 64 1012.9
20260901174525 23 359 11.3 0.0 0.00 0.00 0.00 62 1012.9
20260901173021 23 357 12.9 0.0 0.00 0.00 0.00 57 1012.9